This demonstration page uses our WeatherBlox Daily Observations layout. Learn more.

Left ArrowRight Arrow

32.84923, -109.75925

Hourly Observations for August 7, 2022

Temp ( °F °C ) Dew Point ( °F °C ) Humidity (%) Winds ( mph kmh ) Pressure ( in mb ) Visibility ( mi km ) Precip ( " mm )
12:14 am 00:14 Clear 78 25.6 67 19.4 69 69 NNE 3 6 29.80 1009 10 16 0.00 0.00
12:51 am 00:51 Clear 77 25 68 20 74 74 Calm 29.83 1010 10 16 0.00 0.00
1:51 am 01:51 Partly Cloudy 76 24.4 69 20.6 79 79 NNW 8 13 29.84 1011 10 16 0.00 0.00
2:51 am 02:51 Cloudy 77 25 66 18.9 69 69 NNW 7 11 29.84 1011 10 16 0.00 0.00
3:51 am 03:51 Mostly Clear 77 25 66 18.9 69 69 WSW 5 7 29.85 1011 10 16 0.00 0.00
4:51 am 04:51 Clear 73 22.8 66 18.9 79 79 NNW 3 6 29.87 1011 10 16 0.00 0.00
5:51 am 05:51 Sunny 74 23.3 65 18.3 74 74 WNW 7 11 29.88 1012 10 16 0.00 0.00
6:51 am 06:51 Sunny 76 24.4 66 18.9 72 72 NW 6 9 29.91 1013 10 16 0.00 0.00
7:51 am 07:51 Sunny 77 25 66 18.9 69 69 WNW 12 19 29.92 1013 10 16 0.00 0.00
8:51 am 08:51 Sunny 81 27.2 65 18.3 58 58 WNW 5 7 29.91 1013 10 16 0.00 0.00
9:51 am 09:51 Sunny 84 28.9 64 17.8 51 51 W 3 6 29.90 1012 10 16 0.00 0.00
10:51 am 10:51 Sunny 88 31.1 64 17.8 45 45 VRB 3 6 29.88 1012 10 16 0.00 0.00
11:51 am 11:51 Sunny 90 32.2 61 16.1 38 38 SSW 3 6 29.87 1012 10 16 0.00 0.00
12:51 pm 12:51 Sunny 93 33.9 58 14.4 31 31 S 6 9 29.85 1011 10 16 0.00 0.00
1:51 pm 13:51 Sunny 95 35 59 15 30 30 VRB 5 7 29.82 1010 10 16 0.00 0.00
2:51 pm 14:51 Sunny 96 35.6 57 13.9 27 27 Calm 29.78 1008 10 16 0.00 0.00
3:51 pm 15:51 Sunny 97 36.1 56 13.3 25 25 W 12 19 29.76 1008 10 16 0.00 0.00
4:23 pm 16:23 Sunny with Thunderstorms 96 35.6 58 14.4 28 28 W 13 20 29.65 1004 10 16 0.00 0.00
4:38 pm 16:38 Sunny with Nearby Thunderstorms 95 35 59 15 30 30 WSW 10 17 29.66 1004 10 16 0.00 0.00
4:51 pm 16:51 Sunny with Nearby Thunderstorms 95 35 59 15 30 30 VRB 5 7 29.79 1009 10 16 0.00 0.00
5:11 pm 17:11 Windy with Storms Likely 77 25 65 18.3 66 66 NNE 36 57 29.81 1010 9 14 0.00 0.00
5:51 pm 17:51 Partly Cloudy with Thunderstorms 79 26.1 61 16.1 54 54 NNE 18 30 29.84 1011 10 16 0.00 0.00
6:07 pm 18:07 Partly Cloudy with Nearby Thunderstorms 80 26.7 61 16.1 52 52 N 20 31 29.76 1008 10 16 0.00 0.00
6:15 pm 18:15 Mostly Cloudy with Light Rain 79 26.1 61 16.1 54 54 N 18 30 29.78 1008 10 16 0.00 0.00
6:22 pm 18:22 Mostly Cloudy with Nearby Thunderstorms 81 27.2 60 15.6 49 49 N 20 31 29.76 1008 10 16 0.00 0.00
6:37 pm 18:37 Mostly Sunny 82 27.8 58 14.4 44 44 NNW 12 19 29.76 1008 10 16 0.00 0.00
6:51 pm 18:51 Sunny 81 27.2 61 16.1 51 51 W 21 33 29.85 1011 10 16 0.00 0.00
6:58 pm 18:58 Sunny 81 27.2 61 16.1 51 51 WNW 22 35 29.79 1009 10 16 0.00 0.00
7:51 pm 19:51 Clear 77 25 63 17.2 62 62 NNW 13 20 29.85 1011 10 16 0.00 0.00
8:51 pm 20:51 Partly Cloudy 80 26.7 62 16.7 54 54 ENE 10 17 29.88 1012 10 16 0.00 0.00
9:51 pm 21:51 Mostly Cloudy 76 24.4 65 18.3 69 69 VRB 3 6 29.94 1014 10 16 0.00 0.00
10:51 pm 22:51 Mostly Cloudy 77 25 65 18.3 66 66 WNW 6 9 29.91 1013 10 16 0.00 0.00
11:51 pm 23:51 Mostly Clear 76 24.4 66 18.9 72 72 SSE 3 6 29.93 1014 10 16 0.00 0.00

Powered by AerisWeather